Location: Saint Louis
(38.6272°N, 90.1978°W)
Time: 23:42:21
(UTC-05:00)

ISS - Pass Details

Date: 17 April 2013
Orbit: 402 x 403 km, 51.6° (Epoch: 25 June)

Event Time Altitude Azimuth Distance (km) Brightness Sun altitude
Rises 22:22:35 0° 307° (NW) 2,364 1.8 -28.4°
Reaches altitude 10° 22:24:40 10° 306° (NW) 1,507 0.5 -28.7°
Enters shadow 22:25:41 18° 305° (NW) 1,103 -0.4 -28.8°
